Probability
0 0 0 0 0 0 0 0 0 0 0 0 0 0 0 0 0 0 0 0 0 0 3 3 3 3 3 0 0 0 0 0 0 0 0 3 3 3 3 3 0 0 0 0
0 0 0 0 0 0 0 0 0 0 0 0 0 0 0 0 0 0 0 0 0 0 3 3 3 3 3 0 0 0 0 0 0 0 0 0 3 3 3 0 0 0 0 0
0 0 0 0 0 0 0 0 0 0 0 0 0 0 0 0 0 0 0 0 0 0 0 3 3 3 0 0 0 0 0 0 0 0 0 0 0 3 0 0 0 0 0 0
0 0 0 0 0 0 0 0 0 0 0 0 0 0 0 0 0 0 0 0 0 0 0 0 3 3 0 0 0 0 0 0 0 0 0 0 0 0 0 0 0 0 0 0
0 0 0 0 0 0 0 0 0 0 0 0 0 0 0 0 0 0 0 0 0 0 0 0 3 3 0 0 0 0 0 0 0 0 0 0 0 0 0 0 0 0 0 0
0 0 0 0 0 0 0 0 0 0 0 0 0 0 0 0 0 0 0 0 0 0 0 0 3 3 0 0 0 0 0 0 0 0 0 0 0 0 0 0 0 0 0 0
0 0 0 0 0 0 0 0 0 0 0 0 0 0 0 0 0 0 0 0 0 0 0 0 0 0 0 0 0 0 0 0 0 0 0 0 0 0 0 0 0 0 0 0
0 0 0 0 0 0 0 0 0 0 0 0 0 0 0 0 0 0 0 0 0 0 0 0 0 0 0 0 0 0 0 0 0 0 0 0 0 0 0 0 0 0 0 0
0 0 0 0 0 0 0 0 0 0 0 0 0 0 0 0 0 0 0 0 0 0 0 0 0 0 0 0 0 0 0 0 0 0 0 0 0 0 0 0 0 0 0 0
0 0 0 0 0 0 0 0 0 0 0 0 0 0 0 0 0 0 0 0 0 0 0 0 0 0 0 0 0 0 0 0 0 0 0 0 0 0 0 0 0 0 0 0
0 0 0 0 0 0 0 0 0 0 0 0 0 0 0 0 0 0 0 0 0 0 0 0 0 0 0 0 0 0 0 0 0 0 0 0 0 0 0 0 0 0 0 0
0 0 0 0 0 0 0 0 0 0 0 0 0 0 0 0 0 0 0 0 0 0 0 0 0 0 0 0 0 0 0 0 0 0 0 0 0 0 0 0 0 0 0 0
0 0 0 0 0 0 0 0 0 0 0 0 0 0 0 0 0 0 0 0 0 0 0 0 0 0 0 0 0 0 0 0 0 0 0 0 0 0 0 0 0 0 0 0
0 0 0 0 0 0 0 0 0 0 0 0 0 0 0 0 0 0 0 0 0 0 0 0 0 0 0 0 0 0 0 0 0 0 0 0 0 0 0 0 0 0 0 0
0 0 0 0 0 0 0 0 0 0 0 0 0 0 0 0 0 0 0 0 0 0 0 0 0 0 0 0 0 0 0 0 0 0 0 0 0 0 0 0 0 0 0 0
0 0 0 0 0 0 0 0 0 0 0 0 0 0 0 0 0 0 0 0 0 0 0 0 0 0 0 0 0 0 0 0 0 0 0 0 0 0 0 0 0 0 0 0
0 0 0 0 0 0 0 0 0 0 0 0 0 0 0 0 0 0 0 0 0 0 0 0 0 0 0 0 0 0 0 0 0 0 0 0 0 0 0 0 0 0 0 0
0 0 0 0 0 0 0 0 0 0 0 0 0 0 0 0 0 0 0 0 0 0 0 0 0 0 0 0 0 0 0 0 0 0 0 0 0 0 0 0 0 0 0 0
0 0 0 0 0 0 0 0 0 0 0 0 0 0 0 0 0 0 0 0 0 0 0 0 0 0 0 0 0 0 0 0 0 0 0 0 0 0 0 0 0 0 0 0
0 0 0 0 0 0 0 0 0 0 0 0 0 0 0 0 0 0 0 0 0 0 0 0 0 0 0 0 0 0 0 0 0 0 0 0 0 0 0 0 0 0 0 0
0 0 0 0 0 0 0 0 0 0 0 0 0 0 0 0 0 0 0 0 0 0 0 0 0 0 0 0 0 0 0 0 0 0 0 0 0 0 0 0 0 0 0 0
0 0 0 0 0 0 0 0 0 0 0 0 0 0 0 0 0 0 0 0 0 0 0 0 0 0 0 0 0 0 0 0 0 0 0 0 0 0 0 0 0 0 0 0
0 0 0 0 0 0 0 0 0 0 0 0 0 0 0 0 0 0 0 0 0 0 0 0 0 0 0 0 0 0 0 0 0 0 0 0 0 0 0 0 0 0 0 0
0 0 0 0 0 0 0 0 0 0 0 0 0 0 0 0 0 0 0 0 0 0 0 0 0 0 0 0 0 0 0 0 0 0 0 0 0 0 0 0 0 0 0 0
0 0 0 0 0 0 0 0 0 0 0 0 0 0 0 0 0 0 0 0 0 0 0 0 0 0 0 0 0 0 0 0 0 0 0 0 0 0 0 0 0 0 0 0
0 0 0 0 0 0 0 0 0 0 0 0 0 0 0 0 0 0 0 0 0 0 0 0 0 0 0 0 0 0 0 0 0 0 0 0 0 0 0 0 0 0 0 0
Height
5688 5688 5687 5687 5687 5687 5686 5686 5686 5687 5686 5687 5687 5688 5690 5690 5691 5693 5694 5695 5696 5698 5700 5702 5705 5707 5709 5711 5713 5716 5718 5720 5721 5723 5724 5726 5728 5729 5731 5733 5735 5737 5740 5742
5683 5682 5682 5681 5680 5679 5679 5679 5679 5679 5679 5679 5680 5680 5681 5682 5683 5684 5685 5686 5687 5689 5691 5693 5695 5698 5700 5702 5704 5706 5708 5710 5711 5713 5714 5716 5718 5720 5722 5723 5725 5727 5729 5732
5676 5677 5675 5674 5673 5672 5672 5671 5671 5671 5671 5670 5671 5672 5673 5673 5674 5675 5676 5677 5679 5680 5682 5684 5686 5689 5691 5693 5695 5697 5698 5700 5702 5703 5705 5706 5708 5709 5711 5713 5715 5717 5719 5721
5670 5669 5668 5667 5666 5665 5664 5664 5663 5662 5662 5662 5663 5662 5665 5665 5665 5666 5667 5668 5670 5671 5673 5675 5677 5679 5681 5684 5685 5687 5688 5690 5692 5693 5695 5697 5698 5700 5701 5703 5705 5706 5708 5710
5663 5662 5661 5660 5659 5658 5657 5656 5655 5655 5653 5654 5653 5652 5655 5656 5656 5658 5659 5659 5660 5662 5664 5666 5668 5670 5672 5674 5675 5677 5679 5680 5682 5683 5685 5686 5688 5690 5691 5693 5694 5696 5698 5700
5657 5655 5653 5653 5651 5650 5649 5648 5647 5646 5645 5645 5645 5644 5645 5647 5647 5648 5649 5650 5651 5653 5654 5656 5658 5659 5661 5663 5665 5667 5669 5670 5672 5673 5675 5676 5678 5679 5681 5682 5684 5685 5687 5689
5650 5648 5646 5645 5644 5643 5641 5641 5639 5637 5636 5637 5637 5635 5638 5638 5638 5639 5640 5641 5642 5643 5645 5646 5647 5649 5651 5652 5654 5656 5658 5660 5661 5663 5664 5665 5667 5668 5670 5671 5673 5674 5676 5678
5642 5641 5639 5637 5636 5635 5634 5633 5632 5630 5628 5628 5627 5627 5630 5629 5629 5629 5629 5630 5631 5633 5635 5636 5637 5639 5640 5642 5643 5645 5646 5648 5650 5651 5653 5654 5655 5657 5658 5660 5661 5662 5664 5666
5635 5634 5632 5630 5628 5627 5626 5624 5623 5621 5619 5618 5618 5619 5621 5620 5619 5619 5619 5620 5621 5622 5624 5625 5626 5627 5629 5630 5632 5633 5635 5636 5638 5639 5641 5642 5644 5645 5646 5648 5649 5650 5652 5653
5627 5626 5625 5623 5621 5619 5618 5616 5615 5612 5609 5608 5608 5610 5611 5610 5609 5609 5609 5610 5611 5612 5613 5614 5615 5616 5617 5619 5620 5621 5622 5624 5625 5627 5629 5630 5631 5632 5634 5635 5637 5638 5639 5641
5619 5618 5617 5615 5613 5612 5611 5609 5606 5604 5602 5600 5598 5603 5602 5601 5600 5600 5599 5599 5600 5601 5602 5603 5604 5605 5606 5607 5608 5609 5610 5611 5613 5614 5615 5617 5618 5620 5621 5622 5624 5625 5626 5627
5611 5609 5607 5607 5605 5603 5601 5600 5598 5596 5594 5591 5589 5594 5592 5591 5590 5590 5590 5589 5589 5590 5591 5591 5592 5593 5594 5594 5595 5597 5598 5599 5600 5601 5602 5603 5605 5606 5608 5609 5610 5612 5613 5614
5603 5601 5598 5597 5597 5595 5592 5590 5588 5586 5584 5582 5580 5584 5582 5581 5580 5580 5579 5579 5579 5579 5579 5580 5580 5581 5581 5582 5583 5584 5585 5586 5587 5588 5589 5590 5591 5592 5594 5596 5597 5598 5600 5601
5594 5592 5591 5589 5586 5584 5582 5581 5579 5576 5573 5572 5572 5573 5573 5571 5570 5569 5568 5568 5568 5568 5568 5568 5569 5569 5570 5570 5571 5572 5573 5573 5574 5575 5576 5577 5578 5579 5580 5582 5583 5585 5586 5587
5584 5583 5581 5579 5576 5574 5572 5570 5568 5566 5564 5562 5563 5562 5562 5560 5558 5558 5557 5556 5557 5557 5557 5557 5557 5558 5558 5558 5559 5559 5560 5561 5562 5563 5563 5564 5565 5566 5567 5568 5570 5571 5573 5574
5574 5573 5571 5569 5567 5563 5561 5560 5558 5556 5555 5552 5551 5551 5552 5549 5547 5546 5546 5545 5545 5546 5545 5545 5546 5546 5546 5547 5547 5547 5548 5548 5549 5550 5551 5551 5552 5553 5554 5555 5557 5558 5559 5560
5565 5563 5561 5558 5556 5553 5551 5552 5549 5546 5545 5543 5541 5542 5540 5538 5537 5536 5535 5534 5534 5534 5534 5534 5534 5534 5534 5534 5535 5535 5535 5536 5537 5537 5538 5539 5539 5540 5541 5542 5543 5544 5545 5546
5556 5553 5550 5547 5545 5542 5545 5541 5539 5536 5535 5533 5531 5530 5529 5527 5526 5525 5524 5524 5524 5523 5523 5523 5523 5523 5522 5522 5522 5522 5522 5523 5524 5524 5525 5526 5526 5527 5528 5529 5530 5530 5531 5532
5546 5543 5540 5537 5533 5532 5533 5531 5528 5525 5525 5523 5521 5520 5518 5516 5515 5515 5514 5513 5512 5512 5512 5511 5511 5510 5510 5510 5510 5510 5509 5510 5510 5511 5512 5512 5513 5514 5515 5516 5516 5516 5517 5518
5537 5534 5531 5527 5523 5521 5524 5521 5517 5515 5514 5514 5510 5509 5507 5506 5505 5506 5503 5502 5501 5501 5500 5500 5500 5499 5498 5498 5497 5497 5497 5497 5497 5498 5498 5499 5500 5500 5501 5502 5502 5503 5503 5504
5527 5523 5521 5517 5513 5512 5513 5510 5507 5506 5505 5502 5500 5498 5497 5495 5495 5494 5492 5491 5490 5490 5489 5489 5488 5487 5486 5485 5485 5485 5484 5484 5484 5485 5485 5486 5486 5487 5488 5488 5489 5489 5490 5491
5516 5513 5511 5508 5504 5505 5502 5499 5497 5495 5493 5491 5489 5487 5486 5485 5483 5482 5481 5479 5479 5478 5478 5477 5477 5476 5475 5474 5473 5473 5472 5472 5472 5472 5473 5473 5473 5474 5474 5475 5475 5476 5476 5477
5506 5504 5500 5498 5498 5494 5491 5489 5487 5484 5482 5480 5479 5477 5476 5474 5473 5472 5470 5469 5468 5467 5466 5466 5465 5464 5463 5462 5461 5461 5460 5460 5460 5460 5460 5460 5461 5461 5462 5462 5462 5463 5463 5464
5496 5493 5490 5487 5486 5483 5480 5477 5476 5473 5471 5469 5468 5466 5465 5464 5462 5461 5459 5458 5457 5456 5455 5454 5453 5452 5451 5450 5449 5449 5448 5448 5448 5448 5448 5449 5449 5449 5449 5449 5450 5450 5450 5451
5485 5481 5478 5476 5475 5472 5470 5466 5464 5462 5460 5459 5457 5455 5454 5453 5451 5450 5448 5447 5446 5445 5444 5443 5442 5441 5440 5439 5438 5437 5437 5437 5437 5437 5437 5437 5437 5437 5437 5437 5437 5438 5438 5438
5474 5471 5468 5466 5463 5460 5458 5455 5453 5451 5449 5448 5446 5444 5443 5441 5440 5438 5437 5436 5435 5434 5432 5431 5430 5430 5429 5428 5427 5427 5426 5426 5425 5425 5425 5425 5425 5425 5425 5425 5425 5425 5425 5425
Wind_Speed
22 23 23 24 24 26 26 27 28 28 29 29 29 29 29 30 31 33 33 34 35 35 35 36 36 37 37 36 36 37 37 38 38 38 38 38 38 38 37 38 40 39 39 39
23 23 24 24 26 27 28 28 28 30 30 31 30 30 30 30 30 31 32 33 34 34 35 36 36 36 37 36 36 37 37 38 39 39 39 39 39 39 40 39 40 40 40 40
23 23 24 25 26 27 27 28 29 29 31 31 32 31 31 30 31 31 31 33 35 35 35 35 36 36 37 37 37 37 38 38 39 40 40 40 40 39 40 40 40 41 41 41
24 23 25 25 25 26 27 28 29 29 30 30 31 32 30 31 31 31 32 33 35 36 37 37 36 37 37 37 38 38 38 38 38 39 39 40 40 40 41 41 41 42 42 43
25 25 25 25 25 26 26 27 29 29 30 32 31 33 30 31 31 31 32 33 34 36 37 37 38 38 38 38 39 39 39 39 38 39 40 40 41 42 42 42 42 42 43 43
25 26 26 26 25 26 27 28 29 30 31 32 32 33 30 30 32 32 33 34 34 36 37 38 39 40 40 40 40 40 40 40 40 40 40 41 42 42 42 42 43 43 43 44
25 25 26 26 26 26 27 28 29 30 31 32 32 34 31 29 31 33 33 34 35 35 37 38 39 40 41 41 41 41 41 41 42 42 41 41 43 43 43 43 44 44 45 45
26 25 26 26 27 27 28 28 30 32 33 34 33 34 32 30 31 32 33 34 35 36 37 38 40 41 41 41 42 42 43 43 43 44 45 45 45 45 45 45 45 45 46 46
27 27 27 27 27 27 28 29 30 32 35 35 35 34 32 31 31 32 34 34 35 36 38 38 40 41 41 42 43 44 44 44 44 45 46 47 46 47 47 47 47 47 46 47
28 29 28 28 27 27 28 28 29 31 34 36 36 33 31 31 32 32 33 34 35 36 38 39 40 41 41 42 44 45 45 45 45 46 47 47 48 47 47 47 47 48 48 49
28 29 28 28 28 28 29 29 30 32 33 35 37 35 32 32 32 33 34 34 35 36 38 40 41 41 42 43 44 46 46 46 46 46 47 47 47 47 47 48 49 49 49 49
28 29 29 29 29 30 30 31 31 33 35 36 38 36 34 34 34 34 34 34 34 36 37 39 41 42 43 43 44 45 46 46 47 47 47 47 47 47 48 48 49 49 49 49
28 29 30 30 31 31 32 32 32 34 35 36 37 36 34 35 35 35 35 35 35 35 36 38 39 40 41 42 43 45 45 46 46 46 46 46 47 48 47 48 48 48 48 49
31 31 32 32 32 33 33 33 32 33 35 36 36 36 34 35 35 36 37 37 36 36 36 36 37 39 40 41 43 44 46 46 46 46 46 46 47 47 47 48 48 48 49 49
31 32 33 33 34 34 34 34 34 34 35 37 36 36 35 35 35 35 36 36 36 36 36 37 38 38 39 40 41 43 45 45 46 46 47 47 47 47 47 47 48 48 48 49
32 33 33 33 33 34 34 34 35 35 35 36 36 35 34 35 35 36 36 36 36 37 37 38 38 38 39 39 40 41 43 44 44 45 46 47 47 47 47 47 48 48 49 50
32 32 33 33 33 35 35 33 34 35 35 35 36 34 34 35 35 35 36 37 37 37 38 38 38 38 39 39 40 41 42 43 44 45 46 47 47 46 46 47 47 48 49 50
32 32 33 33 34 35 35 33 33 34 35 36 36 35 35 35 35 35 36 36 36 37 38 38 38 38 39 40 40 41 42 43 44 45 45 47 47 47 47 48 47 47 48 49
33 34 34 34 35 35 33 32 32 33 33 34 36 35 36 36 36 35 36 37 37 36 36 37 37 38 38 39 40 41 41 42 44 44 45 46 47 48 48 49 49 48 49 49
34 34 35 35 36 36 33 32 32 33 33 32 33 34 34 35 35 35 36 36 36 36 36 36 36 37 37 38 39 40 41 42 43 44 44 45 46 46 47 47 48 48 48 48
34 35 36 36 37 36 35 33 33 34 33 32 33 33 33 34 35 35 35 36 36 36 36 36 36 37 37 37 38 39 40 41 42 43 43 43 44 44 45 46 46 47 47 48
34 35 35 36 37 36 35 35 35 35 34 33 33 33 33 33 33 34 35 35 36 36 36 36 36 36 37 37 37 38 39 40 41 41 42 43 43 44 44 44 45 46 46 47
33 34 35 36 36 36 36 36 35 35 35 35 35 34 34 33 33 34 34 34 34 35 36 36 36 36 37 37 37 37 38 38 39 40 41 41 42 42 42 43 43 44 44 45
34 34 35 36 36 37 37 36 36 36 36 35 35 35 35 34 34 33 33 33 34 35 35 36 36 36 36 36 36 37 37 37 38 38 39 40 41 41 41 41 42 43 43 44
35 36 36 37 37 37 37 37 37 37 37 36 35 36 36 35 35 34 33 33 34 35 35 35 35 35 36 36 35 36 36 36 36 37 38 39 40 40 40 40 41 41 43 43
34 35 36 37 37 37 37 37 37 37 37 37 36 36 36 36 35 34 34 34 34 34 34 34 35 35 35 35 35 34 34 35 36 36 37 38 39 40 41 41 41 41 42 42
Wind_Direction
276 272 269 267 265 265 264 265 265 262 261 260 259 257 255 254 252 251 251 249 247 244 243 243 244 245 245 246 246 246 246 246 245 246 247 247 248 249 249 248 248 247 247 249
277 275 272 270 266 266 266 266 267 265 262 262 261 260 257 255 253 252 251 250 249 245 243 242 243 244 245 246 246 245 245 246 246 246 247 248 249 249 249 249 249 248 248 249
279 278 276 273 270 267 268 269 268 267 264 264 263 262 259 257 254 252 251 251 249 247 244 243 243 243 244 245 245 246 246 247 248 247 247 248 248 249 249 249 249 249 250 251
282 279 277 275 274 270 268 269 269 268 266 265 265 265 258 256 254 253 253 252 250 247 244 243 243 244 244 245 246 246 246 247 248 249 249 249 249 249 250 249 250 251 252 252
283 281 279 276 276 275 272 272 271 270 268 265 264 265 262 258 256 254 253 253 251 248 245 244 244 245 246 246 247 247 247 248 249 250 250 250 250 250 250 251 253 253 253 253
284 283 280 277 275 275 273 273 272 271 270 268 265 266 265 261 259 257 255 253 252 250 247 246 247 247 248 248 249 248 248 249 250 251 251 251 250 251 251 252 253 254 255 254
286 285 281 279 278 276 274 275 275 274 271 270 268 267 267 264 261 260 259 257 255 251 251 250 249 249 250 250 250 250 250 250 251 251 252 252 251 252 253 254 255 255 255 255
289 287 284 281 278 278 276 276 275 274 273 273 271 270 268 268 266 263 261 260 257 254 253 252 251 251 251 251 250 250 251 252 252 251 252 253 253 254 255 255 256 256 256 256
289 288 287 285 282 280 278 277 276 275 274 274 273 272 270 268 268 266 263 261 259 256 254 253 253 253 252 252 252 252 253 253 253 252 253 254 255 256 256 256 257 257 257 257
290 289 288 287 284 281 280 279 277 276 276 275 274 274 273 270 269 267 265 262 259 258 255 254 254 254 253 252 252 253 253 253 254 254 254 254 256 257 257 256 258 259 259 258
291 291 290 287 284 282 281 279 277 277 276 275 275 274 274 273 270 268 267 266 261 258 257 256 254 253 253 254 254 254 255 255 255 255 255 255 255 256 257 258 258 258 259 259
292 291 290 288 285 283 281 280 277 276 277 276 276 276 274 273 270 270 268 266 264 261 258 257 256 254 255 255 256 256 256 256 255 255 255 256 255 256 258 258 259 259 259 260
290 290 291 289 286 283 281 279 276 275 276 276 276 277 275 274 272 271 269 268 267 264 260 258 256 255 255 256 257 257 257 257 256 255 256 256 256 257 258 259 259 259 259 260
288 288 289 289 289 287 284 281 278 276 276 277 277 277 275 275 273 270 269 267 266 265 263 260 257 257 257 258 257 257 257 256 256 256 256 257 257 258 258 258 259 260 260 260
289 289 289 288 287 286 285 282 278 276 277 277 279 276 276 275 274 272 270 268 267 265 264 263 262 260 259 259 258 258 257 257 256 256 256 257 257 258 258 258 258 259 260 260
289 289 289 286 285 284 283 281 278 276 276 277 278 277 277 276 274 272 270 268 266 265 265 264 264 263 261 261 260 259 258 257 257 257 256 257 258 258 258 258 259 259 260 261
289 290 290 288 285 283 283 285 281 277 277 278 279 280 278 276 274 271 268 268 268 267 267 266 265 266 265 264 263 262 261 259 258 258 257 258 258 258 259 259 260 261 261 262
288 289 291 291 289 285 288 286 284 281 279 277 278 279 277 276 274 271 269 269 270 269 269 268 267 268 268 267 265 264 262 260 258 258 258 258 258 259 260 261 261 262 263 262
287 289 290 291 290 289 290 288 287 284 281 279 278 277 276 276 274 272 271 271 270 269 269 268 268 269 269 268 266 265 263 261 259 258 258 259 259 260 261 261 262 263 263 263
286 287 288 290 290 290 292 290 288 286 283 281 280 278 277 276 276 275 274 272 270 269 269 269 269 271 271 269 267 266 264 262 260 260 260 260 260 260 260 261 261 262 263 263
285 286 287 288 288 289 290 290 288 286 285 283 280 280 278 277 277 276 276 274 272 271 270 270 271 270 272 271 269 266 265 264 262 261 261 261 261 261 260 260 261 262 263 262
286 285 286 287 288 290 289 288 286 286 284 283 281 280 279 279 279 278 276 275 274 273 272 271 271 271 272 272 270 267 265 264 263 263 263 263 263 262 261 261 262 262 262 262
286 285 285 285 286 288 287 286 284 283 283 282 280 280 281 280 280 279 278 276 274 273 272 271 272 272 272 271 270 267 265 264 264 264 264 263 263 263 262 262 262 263 262 262
286 285 285 284 285 286 286 284 282 282 282 281 280 280 280 281 281 281 279 276 273 272 272 271 271 272 271 271 270 268 266 266 264 264 264 264 264 264 263 262 262 262 263 263
286 288 287 285 285 285 284 283 282 280 279 279 280 279 278 280 280 280 279 276 273 272 271 271 270 270 270 269 268 267 266 265 264 263 264 265 265 265 264 264 264 263 264 265
287 288 289 288 287 285 284 283 281 280 279 278 278 278 278 278 278 278 277 276 273 272 271 271 271 271 271 270 269 268 267 266 266 266 266 266 266 265 265 265 265 265 266 267